Location: LDNL
(36.4545°S, 141.6685°E)
Time: 09:44:33
(UTC+11:00)

Courier 1B - Pass Details

Date: 15 February 2023
Orbit: 962 x 1209 km, 28.3° (Epoch: 21 March)

Event Time Altitude Azimuth Distance (km) Brightness Sun altitude
Rises 22:01:17 0° 293° (WNW) 3,660 11.0 -17.6°
Reaches altitude 10° 22:04:02 10° 300° (WNW) 2,732 10.2 -18.1°
Maximum altitude 22:10:08 40° 8° (N) 1,449 8.1 -19.1°
Enters shadow 22:12:19 32° 47° (NE) 1,688 8.2 -19.5°
